Cer senin, cu nori Cirrus
Variabil, cu nori Cirrus și posibili nori de furtună
Cer senin, cu puțini nori joși si Cirrus
Cer senin, cu puțini nori Cirrus
Senin, cu puțini nori joși
Senin, cu puțini nori joși
Senin, cu puțini nori joși
Cer senin, fără nori
Cer senin, fără nori
(°C)
30°
30°
30°
30°
29°
29°
28°
28°
27°
27°
27°
27°
27°
27°
26°
26°
26°
26°
(°C)
34°
33°
32°
32°
31°
30°
30°
29°
29°
NNV
NE
NNV
NNV
VNV
NV
VNV
VNV
V
(km/h)
10-26
8-22
9-22
9-23
10-24
10-26
10-26
10-25
10-24
(mm)
0
0
0
0
0
0
0
0
0
(%)
0
6
0
0
6
0
0
0
0

Elevația soarelui

/ 31.3°
sun-icon
UV 9
05:48
20:30
Luna gibboasă în creștere (172°)
20:26
04:43

METAR pentru Tholos (Rhodos) (LGRP)

Ora Condiții Temperatură/
Punctul de rouă
Vânt Vizibilitate Vremea Nori Presiune Schimbă Brut
VFR 30°C / 23°C 240º 16kt 9700m - Few Clouds 1800ft 1005 No Significant change LGRP 211420Z 24016KT 9999 FEW018 30/23 Q1005 NOSIG
VFR 30°C / 23°C 240º 16kt 9700m - Few Clouds 1800ft 1005 No Significant change LGRP 211350Z 24016KT 9999 FEW018 30/23 Q1005 NOSIG
VFR 30°C / 23°C 240º 15kt 9700m - Few Clouds 1800ft 1005 No Significant change LGRP 211320Z 24015KT 9999 FEW018 30/23 Q1005 NOSIG
VFR 30°C / 23°C 240º 15kt 9700m - Few Clouds 1800ft 1005 No Significant change LGRP 211250Z 24015KT 9999 FEW018 30/23 Q1005 NOSIG
VFR 30°C / 24°C 250º 14kt 9700m - Few Clouds 1800ft 1005 No Significant change LGRP 211220Z 25014KT 9999 FEW018 30/24 Q1005 NOSIG
VFR 30°C / 24°C 250º 14kt 9700m - Few Clouds 1800ft 1005 No Significant change LGRP 211150Z 25014KT 9999 FEW018 30/24 Q1005 NOSIG
VFR 32°C / 22°C 240º 12kt 9700m - Few Clouds 1800ft 1005 No Significant change LGRP 211120Z 24012KT 9999 FEW018 32/22 Q1005 NOSIG
VFR 32°C / 22°C 240º 12kt 9700m - Few Clouds 1800ft 1005 No Significant change LGRP 211050Z 24012KT 9999 FEW018 32/22 Q1005 NOSIG
VFR 32°C / 22°C 250º 13kt 9700m - Few Clouds 1800ft 1005 No Significant change LGRP 211020Z 25013KT 9999 FEW018 32/22 Q1005 NOSIG
VFR 32°C / 22°C 250º 13kt 9700m - Few Clouds 1800ft 1005 No Significant change LGRP 210950Z 25013KT 9999 FEW018 32/22 Q1005 NOSIG
VFR 31°C / 22°C 240º 11kt 9700m - Few Clouds 1800ft 1005 No Significant change LGRP 210920Z 24011KT 9999 FEW018 31/22 Q1005 NOSIG
VFR 31°C / 22°C 240º 11kt 9700m - Few Clouds 1800ft 1005 No Significant change LGRP 210850Z 24011KT 9999 FEW018 31/22 Q1005 NOSIG
VFR 31°C / 22°C 240º 11kt 9700m - Few Clouds 1800ft 1005 No Significant change LGRP 210820Z 24011KT 9999 FEW018 31/22 Q1005 NOSIG
VFR 31°C / 22°C 240º 11kt 9700m - Few Clouds 1800ft 1005 No Significant change LGRP 210750Z 24011KT 9999 FEW018 31/22 Q1005 NOSIG
VFR 31°C / 23°C 260º 8kt 9700m - Few Clouds 1800ft 1005 No Significant change LGRP 210720Z 26008KT 9999 FEW018 31/23 Q1005 NOSIG
VFR 31°C / 23°C 260º 8kt 9700m - Few Clouds 1800ft 1005 No Significant change LGRP 210650Z 26008KT 9999 FEW018 31/23 Q1005 NOSIG
VFR 28°C / 23°C 240º 9kt 9700m - Few Clouds 1800ft 1005 No Significant change LGRP 210620Z 24009KT 9999 FEW018 28/23 Q1005 NOSIG
VFR 28°C / 23°C 240º 9kt 9700m - Few Clouds 1800ft 1005 No Significant change LGRP 210550Z 24009KT 9999 FEW018 28/23 Q1005 NOSIG
VFR 28°C / 22°C 230º 10kt 9700m - Few Clouds 1800ft 1005 No Significant change LGRP 210520Z 23010KT 9999 FEW018 28/22 Q1005 NOSIG
VFR 28°C / 22°C 230º 10kt 9700m - Few Clouds 1800ft 1005 No Significant change LGRP 210450Z 23010KT 9999 FEW018 28/22 Q1005 NOSIG
VFR 28°C / 22°C 240º 10kt 9700m - Few Clouds 1600ft 1005 No Significant change LGRP 210420Z 24010KT 9999 FEW016TCU 28/22 Q1005 NOSIG
VFR 28°C / 22°C 240º 10kt 9700m - Few Clouds 1600ft 1005 No Significant change LGRP 210350Z 24010KT 9999 FEW016TCU 28/22 Q1005 NOSIG
VFR 28°C / 19°C 230º 8kt 9700m - Few Clouds 1600ft 1004 No Significant change LGRP 210320Z 23008KT 9999 FEW016TCU 28/19 Q1004 NOSIG
VFR 28°C / 19°C 240º 9kt 9700m - Few Clouds 1800ft 1004 No Significant change LGRP 210250Z 24009KT 9999 FEW018 28/19 Q1004 NOSIG

VFR

30°C / 23°C

[Mai mult]
Vânt 240º 16kt
Vizibilitate 9700m
Vremea -
Nori Few Clouds 1800ft
Presiune 1005
Schimbă No Significant change
Brut LGRP 211420Z 24016KT 9999 FEW018 30/23 Q1005 NOSIG

VFR

30°C / 23°C

[Mai mult]
Vânt 240º 16kt
Vizibilitate 9700m
Vremea -
Nori Few Clouds 1800ft
Presiune 1005
Schimbă No Significant change
Brut LGRP 211350Z 24016KT 9999 FEW018 30/23 Q1005 NOSIG

VFR

30°C / 23°C

[Mai mult]
Vânt 240º 15kt
Vizibilitate 9700m
Vremea -
Nori Few Clouds 1800ft
Presiune 1005
Schimbă No Significant change
Brut LGRP 211320Z 24015KT 9999 FEW018 30/23 Q1005 NOSIG

VFR

30°C / 23°C

[Mai mult]
Vânt 240º 15kt
Vizibilitate 9700m
Vremea -
Nori Few Clouds 1800ft
Presiune 1005
Schimbă No Significant change
Brut LGRP 211250Z 24015KT 9999 FEW018 30/23 Q1005 NOSIG

VFR

30°C / 24°C

[Mai mult]
Vânt 250º 14kt
Vizibilitate 9700m
Vremea -
Nori Few Clouds 1800ft
Presiune 1005
Schimbă No Significant change
Brut LGRP 211220Z 25014KT 9999 FEW018 30/24 Q1005 NOSIG

VFR

30°C / 24°C

[Mai mult]
Vânt 250º 14kt
Vizibilitate 9700m
Vremea -
Nori Few Clouds 1800ft
Presiune 1005
Schimbă No Significant change
Brut LGRP 211150Z 25014KT 9999 FEW018 30/24 Q1005 NOSIG

VFR

32°C / 22°C

[Mai mult]
Vânt 240º 12kt
Vizibilitate 9700m
Vremea -
Nori Few Clouds 1800ft
Presiune 1005
Schimbă No Significant change
Brut LGRP 211120Z 24012KT 9999 FEW018 32/22 Q1005 NOSIG

VFR

32°C / 22°C

[Mai mult]
Vânt 240º 12kt
Vizibilitate 9700m
Vremea -
Nori Few Clouds 1800ft
Presiune 1005
Schimbă No Significant change
Brut LGRP 211050Z 24012KT 9999 FEW018 32/22 Q1005 NOSIG

VFR

32°C / 22°C

[Mai mult]
Vânt 250º 13kt
Vizibilitate 9700m
Vremea -
Nori Few Clouds 1800ft
Presiune 1005
Schimbă No Significant change
Brut LGRP 211020Z 25013KT 9999 FEW018 32/22 Q1005 NOSIG

VFR

32°C / 22°C

[Mai mult]
Vânt 250º 13kt
Vizibilitate 9700m
Vremea -
Nori Few Clouds 1800ft
Presiune 1005
Schimbă No Significant change
Brut LGRP 210950Z 25013KT 9999 FEW018 32/22 Q1005 NOSIG

VFR

31°C / 22°C

[Mai mult]
Vânt 240º 11kt
Vizibilitate 9700m
Vremea -
Nori Few Clouds 1800ft
Presiune 1005
Schimbă No Significant change
Brut LGRP 210920Z 24011KT 9999 FEW018 31/22 Q1005 NOSIG

VFR

31°C / 22°C

[Mai mult]
Vânt 240º 11kt
Vizibilitate 9700m
Vremea -
Nori Few Clouds 1800ft
Presiune 1005
Schimbă No Significant change
Brut LGRP 210850Z 24011KT 9999 FEW018 31/22 Q1005 NOSIG

VFR

31°C / 22°C

[Mai mult]
Vânt 240º 11kt
Vizibilitate 9700m
Vremea -
Nori Few Clouds 1800ft
Presiune 1005
Schimbă No Significant change
Brut LGRP 210820Z 24011KT 9999 FEW018 31/22 Q1005 NOSIG

VFR

31°C / 22°C

[Mai mult]
Vânt 240º 11kt
Vizibilitate 9700m
Vremea -
Nori Few Clouds 1800ft
Presiune 1005
Schimbă No Significant change
Brut LGRP 210750Z 24011KT 9999 FEW018 31/22 Q1005 NOSIG

VFR

31°C / 23°C

[Mai mult]
Vânt 260º 8kt
Vizibilitate 9700m
Vremea -
Nori Few Clouds 1800ft
Presiune 1005
Schimbă No Significant change
Brut LGRP 210720Z 26008KT 9999 FEW018 31/23 Q1005 NOSIG

VFR

31°C / 23°C

[Mai mult]
Vânt 260º 8kt
Vizibilitate 9700m
Vremea -
Nori Few Clouds 1800ft
Presiune 1005
Schimbă No Significant change
Brut LGRP 210650Z 26008KT 9999 FEW018 31/23 Q1005 NOSIG

VFR

28°C / 23°C

[Mai mult]
Vânt 240º 9kt
Vizibilitate 9700m
Vremea -
Nori Few Clouds 1800ft
Presiune 1005
Schimbă No Significant change
Brut LGRP 210620Z 24009KT 9999 FEW018 28/23 Q1005 NOSIG

VFR

28°C / 23°C

[Mai mult]
Vânt 240º 9kt
Vizibilitate 9700m
Vremea -
Nori Few Clouds 1800ft
Presiune 1005
Schimbă No Significant change
Brut LGRP 210550Z 24009KT 9999 FEW018 28/23 Q1005 NOSIG

VFR

28°C / 22°C

[Mai mult]
Vânt 230º 10kt
Vizibilitate 9700m
Vremea -
Nori Few Clouds 1800ft
Presiune 1005
Schimbă No Significant change
Brut LGRP 210520Z 23010KT 9999 FEW018 28/22 Q1005 NOSIG

VFR

28°C / 22°C

[Mai mult]
Vânt 230º 10kt
Vizibilitate 9700m
Vremea -
Nori Few Clouds 1800ft
Presiune 1005
Schimbă No Significant change
Brut LGRP 210450Z 23010KT 9999 FEW018 28/22 Q1005 NOSIG

VFR

28°C / 22°C

[Mai mult]
Vânt 240º 10kt
Vizibilitate 9700m
Vremea -
Nori Few Clouds 1600ft
Presiune 1005
Schimbă No Significant change
Brut LGRP 210420Z 24010KT 9999 FEW016TCU 28/22 Q1005 NOSIG

VFR

28°C / 22°C

[Mai mult]
Vânt 240º 10kt
Vizibilitate 9700m
Vremea -
Nori Few Clouds 1600ft
Presiune 1005
Schimbă No Significant change
Brut LGRP 210350Z 24010KT 9999 FEW016TCU 28/22 Q1005 NOSIG

VFR

28°C / 19°C

[Mai mult]
Vânt 230º 8kt
Vizibilitate 9700m
Vremea -
Nori Few Clouds 1600ft
Presiune 1004
Schimbă No Significant change
Brut LGRP 210320Z 23008KT 9999 FEW016TCU 28/19 Q1004 NOSIG

VFR

28°C / 19°C

[Mai mult]
Vânt 240º 9kt
Vizibilitate 9700m
Vremea -
Nori Few Clouds 1800ft
Presiune 1004
Schimbă No Significant change
Brut LGRP 210250Z 24009KT 9999 FEW018 28/19 Q1004 NOSIG

TAF pentru Tholos (Rhodos) (LGRP)

From till


From till Wind 250º 12kt. Visibility 9700m. Few Clouds 1800ft.
With 30% probability, Temporarly from till Visibility 5000m. Thunderstorm Rain . Few Clouds 1800ft. Broken Clouds 2500ft.

Brut: TAF LGRP 211100Z 2112/2212 25012KT 9999 FEW018 PROB30 TEMPO 2112/2118 5000 TSRA FEW018CB BKN025

Radar și nowcast de precipitații pentru Tholos (Rhodos)

Burniță
Ușoară
Moderat
Greu
Foarte greu
Grindină

Markerul de locație este plasat în Tholos (Rhodos). Această animație arată radarul de precipitații pentru intervalul de timp selectat, precum și o prognoză 2h. Crucile portocalii indică fulgerele. Date furnizate de nowcast.de (disponibile în SUA, Europa, Australia). Ploaia sau ninsoarea slabă ar putea fi invizibilă pentru radar. Intensitatea precipitațiilor este codificată prin culori, de la turcoaz la roșu.

Imagini satelitare și ploaie pentru Tholos (Rhodos), Grecia

Markerul cu locaţia este poziţionat pe Tholos (Rhodos). [Mai mult]

Imaginea satelitară în timp real combină lumina vizibilă din timpul zilei cu radiația cu infraroșu din timpul nopții. Pe timp de noapte, imaginea nu este întunecată, deoarece radiația cu infraroșu poate detecta diferențele de temperatură. Din păcate, norii joși și ceața sunt greu de recunoscut față de temperatura de la sol, din această cauză putând fi invizibili pe timp de noapte. Imaginile satelitare Meteosat pentru Europa sunt actualizate în timp real din 5 în 5 minute. Imaginile GOES-16/GOES-17 (America de Nord și de Sud) și Himawari (Asia) sunt actualizate din 10 în 10 minute.

Precipitațiile sunt estimate pe baza radarelor și a sateliților. Estimările de precipitații de la sateliți sunt mai puțin precise pe timp de noapte decât pe timp de zi.

© 2024 meteoblue, NOAA Satellites GOES-16 and EUMETSAT. Datele despre fulgere furnizate de către nowcast.

Mergi sus
×
Bună ziua,
se pare că folosiți un blocant de reclame.

Publicitatea este esențială pentru a menține site-ul nostru gratuit cu detalii și acuratețe unice.

Vă rugăm să whitelist www.meteoblue.com în ad blocker-ul dvs. sau luați în considerare cumpărarea unuia dintre produsele noastre:

Aveți deja un abonament?
Atunci vă rugăm login.